N626EL MYGF-KRDU

Flight info

Callsign N626EL
Flight time 1h 49m
Altitude 35000
Route ZFP BR65V RAPPS JAZZI AR3 GARIC BLOGS3
Aircraft C550/L-VGDW/C

Departure

Time 2026-05-07 02:51
Airport Grand Bahama International Airport (MYGF)

Arrival

Time 2026-05-07 04:41
Airport Raleigh-Durham International Airport (KRDU)
Time Latitude Longitude Altitude Speed Heading
2026-05-07 02:49 26.54856 -78.70187 18 ft 0 kts 270°
2026-05-07 02:51 26.54989 -78.70216 15 ft 63 kts 24°
2026-05-07 02:51 26.55540 -78.69677 64 ft 143 kts 43°
2026-05-07 02:51 26.56341 -78.68635 290 ft 209 kts 60°
2026-05-07 02:51 26.57222 -78.67345 1562 ft 215 kts 28°
2026-05-07 02:52 26.58633 -78.67094 2871 ft 219 kts 359°
2026-05-07 02:52 26.60198 -78.67234 3810 ft 238 kts 351°
2026-05-07 02:52 26.61764 -78.67729 4883 ft 246 kts 342°
2026-05-07 02:52 26.63246 -78.68306 6660 ft 219 kts 342°
2026-05-07 02:53 26.64680 -78.68745 7704 ft 224 kts 348°
2026-05-07 02:53 26.66276 -78.68997 8405 ft 244 kts 355°
2026-05-07 02:53 26.67983 -78.69077 9290 ft 248 kts 359°
2026-05-07 02:53 26.69686 -78.69065 10046 ft 245 kts
2026-05-07 02:54 26.71396 -78.69009 10668 ft 248 kts
2026-05-07 02:54 26.73118 -78.68932 11275 ft 250 kts
2026-05-07 02:54 26.74844 -78.68848 11895 ft 250 kts
2026-05-07 02:54 26.76572 -78.68761 12500 ft 251 kts
2026-05-07 02:55 26.78300 -78.68675 13054 ft 252 kts
2026-05-07 02:55 26.80058 -78.68588 13600 ft 254 kts
2026-05-07 02:55 26.81807 -78.68502 14123 ft 255 kts
2026-05-07 02:55 26.83573 -78.68415 14622 ft 257 kts
2026-05-07 02:56 26.85364 -78.68327 15112 ft 258 kts
2026-05-07 02:56 26.87132 -78.68240 15745 ft 259 kts
2026-05-07 02:56 26.88905 -78.68152 16692 ft 255 kts
2026-05-07 02:56 26.90618 -78.68067 17600 ft 250 kts
2026-05-07 02:57 26.92349 -78.67982 18361 ft 251 kts
2026-05-07 02:57 26.94096 -78.67898 19023 ft 255 kts 360°
2026-05-07 02:57 26.95881 -78.67811 19666 ft 259 kts 359°
2026-05-07 02:57 26.97684 -78.67723 20312 ft 262 kts 359°
2026-05-07 02:58 26.99504 -78.67633 20952 ft 264 kts 359°
2026-05-07 02:58 27.01324 -78.67544 21567 ft 267 kts 358°
2026-05-07 02:58 27.03192 -78.67452 22168 ft 269 kts 358°
2026-05-07 02:58 27.05052 -78.67339 22741 ft 272 kts 360°
2026-05-07 02:59 27.06941 -78.67110 23302 ft 276 kts
2026-05-07 02:59 27.08824 -78.66808 23838 ft 279 kts
2026-05-07 02:59 27.10742 -78.66506 24359 ft 281 kts
2026-05-07 02:59 27.12680 -78.66201 24878 ft 284 kts
2026-05-07 03:00 27.14632 -78.65891 25383 ft 286 kts
2026-05-07 03:00 27.16605 -78.65576 25877 ft 288 kts
2026-05-07 03:00 27.18583 -78.65260 26352 ft 290 kts
2026-05-07 03:00 27.20578 -78.64941 26801 ft 293 kts
2026-05-07 03:01 27.22597 -78.64618 27238 ft 295 kts
2026-05-07 03:01 27.24619 -78.64294 27663 ft 297 kts
2026-05-07 03:01 27.26674 -78.63965 28078 ft 299 kts
2026-05-07 03:01 27.28717 -78.63637 28490 ft 301 kts
2026-05-07 03:02 27.30810 -78.63300 28888 ft 303 kts
2026-05-07 03:02 27.32867 -78.62971 29263 ft 304 kts
2026-05-07 03:02 27.34968 -78.62633 29635 ft 306 kts
2026-05-07 03:02 27.37092 -78.62292 29985 ft 308 kts
2026-05-07 03:03 27.39192 -78.61955 30325 ft 310 kts
2026-05-07 03:03 27.41334 -78.61610 30677 ft 311 kts
2026-05-07 03:03 27.43476 -78.61265 31012 ft 312 kts
2026-05-07 03:03 27.45617 -78.60921 31317 ft 314 kts
2026-05-07 03:04 27.47767 -78.60574 31632 ft 315 kts
2026-05-07 03:04 27.49930 -78.60226 31942 ft 315 kts
2026-05-07 03:04 27.52105 -78.59875 32225 ft 317 kts
2026-05-07 03:04 27.54284 -78.59525 32495 ft 318 kts
2026-05-07 03:05 27.56471 -78.59172 32777 ft 319 kts
2026-05-07 03:05 27.58637 -78.58823 33038 ft 320 kts
2026-05-07 03:05 27.60844 -78.58466 33281 ft 321 kts
2026-05-07 03:05 27.63048 -78.58111 33519 ft 322 kts
2026-05-07 03:06 27.65271 -78.57752 33774 ft 322 kts
2026-05-07 03:06 27.67484 -78.57394 34018 ft 323 kts
2026-05-07 03:06 27.69681 -78.57038 34228 ft 324 kts
2026-05-07 03:06 27.71942 -78.56673 34401 ft 326 kts
2026-05-07 03:07 27.74161 -78.56316 34575 ft 328 kts
2026-05-07 03:07 27.76417 -78.55951 34744 ft 329 kts
2026-05-07 03:07 27.78691 -78.55583 34923 ft 330 kts
2026-05-07 03:07 27.80953 -78.55218 35009 ft 334 kts
2026-05-07 03:08 27.85633 -78.54465 35021 ft 345 kts
2026-05-07 03:08 27.90413 -78.53692 35020 ft 353 kts
2026-05-07 03:09 27.95304 -78.52896 35019 ft 359 kts
2026-05-07 03:09 28.00255 -78.52090 35019 ft 363 kts
2026-05-07 03:10 28.05247 -78.51275 35018 ft 367 kts
2026-05-07 03:10 28.10311 -78.50449 35019 ft 369 kts
2026-05-07 03:11 28.15387 -78.49622 35027 ft 371 kts
2026-05-07 03:11 28.20493 -78.48789 35025 ft 373 kts
2026-05-07 03:12 28.25607 -78.47953 35021 ft 374 kts
2026-05-07 03:12 28.30773 -78.47109 35018 ft 375 kts
2026-05-07 03:13 28.35910 -78.46268 35016 ft 376 kts
2026-05-07 03:13 28.41073 -78.45423 35016 ft 376 kts
2026-05-07 03:14 28.46263 -78.44572 35015 ft 377 kts
2026-05-07 03:15 28.53997 -78.43303 35015 ft 377 kts
2026-05-07 03:15 28.59184 -78.42450 35015 ft 377 kts
2026-05-07 03:16 28.64347 -78.41601 35014 ft 377 kts
2026-05-07 03:16 28.69520 -78.40749 35009 ft 377 kts
2026-05-07 03:17 28.74721 -78.39893 35003 ft 378 kts
2026-05-07 03:17 28.79886 -78.39040 34997 ft 378 kts
2026-05-07 03:18 28.85072 -78.38184 34995 ft 378 kts
2026-05-07 03:18 28.90244 -78.37329 34994 ft 377 kts 360°
2026-05-07 03:19 28.95412 -78.36475 34994 ft 378 kts
2026-05-07 03:19 29.00643 -78.35609 34994 ft 380 kts 360°
2026-05-07 03:20 29.05853 -78.34746 34985 ft 381 kts
2026-05-07 03:20 29.11057 -78.33882 34986 ft 381 kts
2026-05-07 03:21 29.16305 -78.33010 34989 ft 381 kts
2026-05-07 03:21 29.21543 -78.32139 34989 ft 381 kts
2026-05-07 03:22 29.26776 -78.31267 34988 ft 382 kts
2026-05-07 03:22 29.31982 -78.30400 34987 ft 382 kts
2026-05-07 03:23 29.37219 -78.29526 34983 ft 382 kts 360°
2026-05-07 03:23 29.42461 -78.28651 34980 ft 381 kts 360°
2026-05-07 03:24 29.47686 -78.27777 34978 ft 381 kts 360°
2026-05-07 03:24 29.52935 -78.26899 34977 ft 381 kts 360°
2026-05-07 03:25 29.58142 -78.26027 34977 ft 381 kts 360°
2026-05-07 03:25 29.63375 -78.25150 34977 ft 381 kts 360°
2026-05-07 03:26 29.68601 -78.24273 34977 ft 381 kts 360°
2026-05-07 03:26 29.73796 -78.23400 34976 ft 380 kts 360°
2026-05-07 03:27 29.79024 -78.22520 34976 ft 380 kts 360°
2026-05-07 03:27 29.84234 -78.21643 34976 ft 380 kts 360°
2026-05-07 03:28 29.89456 -78.20763 34976 ft 380 kts 360°
2026-05-07 03:28 29.94653 -78.19887 34975 ft 380 kts 360°
2026-05-07 03:29 29.99853 -78.19007 34968 ft 380 kts 360°
2026-05-07 03:29 30.05075 -78.18124 34962 ft 380 kts 360°
2026-05-07 03:30 30.10303 -78.17239 34957 ft 380 kts 360°
2026-05-07 03:30 30.15498 -78.16359 34964 ft 380 kts 360°
2026-05-07 03:31 30.20725 -78.15472 34963 ft 380 kts 360°
2026-05-07 03:31 30.25925 -78.14589 34963 ft 381 kts 359°
2026-05-07 03:32 30.31166 -78.13698 34963 ft 381 kts 359°
2026-05-07 03:32 30.36395 -78.12807 34962 ft 382 kts 359°
2026-05-07 03:33 30.41623 -78.11917 34962 ft 382 kts 359°
2026-05-07 03:33 30.46870 -78.11021 34962 ft 382 kts 359°
2026-05-07 03:34 30.52088 -78.10131 34961 ft 382 kts 359°
2026-05-07 03:34 30.57343 -78.09232 34961 ft 382 kts 359°
2026-05-07 03:35 30.62572 -78.08338 34959 ft 383 kts 359°
2026-05-07 03:35 30.67817 -78.07439 34957 ft 383 kts 359°
2026-05-07 03:36 30.73092 -78.06535 34954 ft 383 kts 359°
2026-05-07 03:36 30.78331 -78.05636 34953 ft 384 kts 359°
2026-05-07 03:37 30.83607 -78.04729 34953 ft 384 kts 359°
2026-05-07 03:37 30.88854 -78.03826 34952 ft 384 kts 359°
2026-05-07 03:38 30.94142 -78.02915 34952 ft 385 kts 359°
2026-05-07 03:38 30.99414 -78.02006 34951 ft 385 kts 359°
2026-05-07 03:39 31.04698 -78.01093 34950 ft 385 kts 359°
2026-05-07 03:39 31.09986 -78.00179 34950 ft 385 kts 359°
2026-05-07 03:40 31.15137 -77.99287 34957 ft 386 kts 359°
2026-05-07 03:40 31.20431 -77.98370 34956 ft 386 kts 359°
2026-05-07 03:41 31.25699 -77.97457 34956 ft 386 kts 359°
2026-05-07 03:41 31.31014 -77.96535 34956 ft 386 kts 359°
2026-05-07 03:42 31.36272 -77.95621 34955 ft 386 kts 359°
2026-05-07 03:42 31.41570 -77.94699 34955 ft 386 kts 359°
2026-05-07 03:43 31.46890 -77.93773 34955 ft 386 kts 359°
2026-05-07 03:43 31.52178 -77.92851 34955 ft 387 kts 359°
2026-05-07 03:44 31.57481 -77.91924 34954 ft 387 kts 359°
2026-05-07 03:44 31.62785 -77.90997 34954 ft 387 kts 359°
2026-05-07 03:45 31.68062 -77.90073 34954 ft 387 kts 359°
2026-05-07 03:45 31.73381 -77.89141 34951 ft 387 kts 359°
2026-05-07 03:46 31.78688 -77.88210 34948 ft 388 kts 359°
2026-05-07 03:46 31.84023 -77.87273 34945 ft 388 kts 359°
2026-05-07 03:47 31.89329 -77.86576 34944 ft 381 kts 353°
2026-05-07 03:47 31.94540 -77.86687 34944 ft 376 kts 348°
2026-05-07 03:48 31.99738 -77.86978 34943 ft 376 kts 348°
2026-05-07 03:48 32.04949 -77.87286 34943 ft 376 kts 348°
2026-05-07 03:49 32.10143 -77.87594 34935 ft 376 kts 348°
2026-05-07 03:49 32.15366 -77.87901 34940 ft 376 kts 348°
2026-05-07 03:50 32.20564 -77.88206 34939 ft 376 kts 348°
2026-05-07 03:50 32.25790 -77.88512 34939 ft 377 kts 348°
2026-05-07 03:51 32.30995 -77.88816 34938 ft 377 kts 348°
2026-05-07 03:51 32.36200 -77.89121 34938 ft 377 kts 348°
2026-05-07 03:52 32.41437 -77.89428 34938 ft 377 kts 348°
2026-05-07 03:52 32.46647 -77.89735 34937 ft 377 kts 348°
2026-05-07 03:53 32.51889 -77.90042 34937 ft 377 kts 348°
2026-05-07 03:53 32.57109 -77.90350 34937 ft 377 kts 348°
2026-05-07 03:54 32.62325 -77.90658 34936 ft 377 kts 348°
2026-05-07 03:54 32.67574 -77.90968 34936 ft 378 kts 348°
2026-05-07 03:55 32.72801 -77.91277 34936 ft 378 kts 348°
2026-05-07 03:55 32.78006 -77.91585 34935 ft 378 kts 347°
2026-05-07 03:56 32.83257 -77.91896 34935 ft 378 kts 347°
2026-05-07 03:56 32.88483 -77.92206 34934 ft 378 kts 347°
2026-05-07 03:57 32.93721 -77.92517 34934 ft 379 kts 347°
2026-05-07 03:57 32.98966 -77.92829 34933 ft 379 kts 347°
2026-05-07 03:58 33.04229 -77.93142 34930 ft 379 kts 347°
2026-05-07 03:58 33.09486 -77.93456 34927 ft 380 kts 347°
2026-05-07 03:59 33.14687 -77.93762 34929 ft 377 kts 347°
2026-05-07 03:59 33.19922 -77.94079 34929 ft 379 kts 347°
2026-05-07 04:00 33.25170 -77.94396 34928 ft 380 kts 347°
2026-05-07 04:00 33.30444 -77.94711 34928 ft 381 kts 347°
2026-05-07 04:01 33.35731 -77.95027 34928 ft 382 kts 347°
2026-05-07 04:01 33.41031 -77.95345 34927 ft 383 kts 347°
2026-05-07 04:02 33.46348 -77.95664 34928 ft 383 kts 347°
2026-05-07 04:02 33.51626 -77.95981 34931 ft 384 kts 347°
2026-05-07 04:03 33.56948 -77.96302 34933 ft 385 kts 347°
2026-05-07 04:03 33.62307 -77.96625 34935 ft 385 kts 347°
2026-05-07 04:04 33.67614 -77.96945 34935 ft 386 kts 347°
2026-05-07 04:04 33.72973 -77.97269 34935 ft 386 kts 347°
2026-05-07 04:05 33.78295 -77.97591 34935 ft 386 kts 347°
2026-05-07 04:05 33.83675 -77.97917 34935 ft 387 kts 347°
2026-05-07 04:06 33.89106 -77.97862 34935 ft 396 kts 353°
2026-05-07 04:06 33.94598 -77.97179 34935 ft 399 kts 355°
2026-05-07 04:07 34.00098 -77.96431 34935 ft 400 kts 356°
2026-05-07 04:07 34.05607 -77.95670 34935 ft 400 kts 356°
2026-05-07 04:08 34.11081 -77.94911 34936 ft 400 kts 356°
2026-05-07 04:08 34.16608 -77.94144 34937 ft 400 kts 356°
2026-05-07 04:09 34.22110 -77.93380 34937 ft 400 kts 356°
2026-05-07 04:09 34.27638 -77.92612 34937 ft 400 kts 356°
2026-05-07 04:10 34.33151 -77.91843 34937 ft 401 kts 356°
2026-05-07 04:10 34.38667 -77.91074 34937 ft 401 kts 356°
2026-05-07 04:11 34.44186 -77.90300 34937 ft 401 kts 355°
2026-05-07 04:11 34.49700 -77.89526 34937 ft 401 kts 355°
2026-05-07 04:12 34.55243 -77.88747 34937 ft 402 kts 355°
2026-05-07 04:12 34.60750 -77.87973 34937 ft 402 kts 355°
2026-05-07 04:13 34.66283 -77.87193 34937 ft 402 kts 355°
2026-05-07 04:13 34.71831 -77.86411 34937 ft 402 kts 355°
2026-05-07 04:14 34.77358 -77.85631 34935 ft 402 kts 355°
2026-05-07 04:14 34.82861 -77.84853 34933 ft 402 kts 355°
2026-05-07 04:15 34.88417 -77.84066 34932 ft 402 kts 355°
2026-05-07 04:15 34.93953 -77.83282 34930 ft 403 kts 355°
2026-05-07 04:16 34.99538 -77.82490 34930 ft 403 kts 355°
2026-05-07 04:16 35.05079 -77.81702 34931 ft 403 kts 355°
2026-05-07 04:17 35.10632 -77.80911 34933 ft 403 kts 354°
2026-05-07 04:17 35.16186 -77.80119 34942 ft 404 kts 354°
2026-05-07 04:18 35.21734 -77.79327 34951 ft 403 kts 354°
2026-05-07 04:18 35.27269 -77.78536 34959 ft 404 kts 354°
2026-05-07 04:19 35.32838 -77.77739 34967 ft 404 kts 354°
2026-05-07 04:19 35.38443 -77.76942 34434 ft 416 kts 355°
2026-05-07 04:19 35.41245 -77.76715 33677 ft 384 kts 345°
2026-05-07 04:20 35.43681 -77.77367 32939 ft 347 kts 328°
2026-05-07 04:20 35.45689 -77.78728 32193 ft 319 kts 313°
2026-05-07 04:20 35.47200 -77.80563 31444 ft 297 kts 300°
2026-05-07 04:21 35.49145 -77.84759 29952 ft 279 kts 290°
2026-05-07 04:21 35.50007 -77.86852 29203 ft 274 kts 290°
2026-05-07 04:21 35.50839 -77.88894 28463 ft 270 kts 290°
2026-05-07 04:21 35.51671 -77.90936 27712 ft 267 kts 291°
2026-05-07 04:22 35.52490 -77.92939 26964 ft 263 kts 291°
2026-05-07 04:22 35.53302 -77.94919 26216 ft 260 kts 291°
2026-05-07 04:22 35.54108 -77.96879 25465 ft 257 kts 292°
2026-05-07 04:22 35.54905 -77.98816 24715 ft 254 kts 292°
2026-05-07 04:23 35.55683 -78.00709 23972 ft 251 kts 292°
2026-05-07 04:23 35.56467 -78.02616 23215 ft 249 kts 292°
2026-05-07 04:23 35.57237 -78.04488 22465 ft 247 kts 292°
2026-05-07 04:23 35.58003 -78.06353 21711 ft 245 kts 291°
2026-05-07 04:24 35.58753 -78.08181 20968 ft 243 kts 291°
2026-05-07 04:24 35.59506 -78.10014 20218 ft 242 kts 291°
2026-05-07 04:24 35.60255 -78.11841 19467 ft 241 kts 291°
2026-05-07 04:24 35.61005 -78.13671 18712 ft 240 kts 290°
2026-05-07 04:25 35.61749 -78.15487 17960 ft 239 kts 290°
2026-05-07 04:25 35.62487 -78.17291 17210 ft 239 kts 290°
2026-05-07 04:25 35.63228 -78.19102 16455 ft 238 kts 290°
2026-05-07 04:25 35.63965 -78.20904 15703 ft 237 kts 290°
2026-05-07 04:26 35.64695 -78.22688 14956 ft 237 kts 290°
2026-05-07 04:26 35.65429 -78.24486 14202 ft 236 kts 290°
2026-05-07 04:26 35.66179 -78.26285 13444 ft 237 kts 292°
2026-05-07 04:26 35.66992 -78.28025 12694 ft 237 kts 294°
2026-05-07 04:27 35.67822 -78.29752 11945 ft 237 kts 295°
2026-05-07 04:27 35.68653 -78.31486 11192 ft 236 kts 295°
2026-05-07 04:27 35.69471 -78.33209 10440 ft 234 kts 295°
2026-05-07 04:27 35.70265 -78.34888 9912 ft 223 kts 294°
2026-05-07 04:28 35.71033 -78.36516 9198 ft 223 kts 294°
2026-05-07 04:28 35.71820 -78.38206 8467 ft 230 kts 294°
2026-05-07 04:28 35.72644 -78.39857 8074 ft 222 kts 298°
2026-05-07 04:28 35.73571 -78.41322 7915 ft 212 kts 303°
2026-05-07 04:29 35.74501 -78.42664 7896 ft 199 kts 303°
2026-05-07 04:29 35.75379 -78.43926 7894 ft 188 kts 302°
2026-05-07 04:29 35.76204 -78.45106 7973 ft 175 kts 302°
2026-05-07 04:29 35.76970 -78.46206 7992 ft 167 kts 302°
2026-05-07 04:30 35.77727 -78.47307 7999 ft 183 kts 301°
2026-05-07 04:30 35.78649 -78.48700 8010 ft 238 kts 303°
2026-05-07 04:30 35.79765 -78.50343 8001 ft 259 kts 304°
2026-05-07 04:30 35.80951 -78.52043 7996 ft 257 kts 305°
2026-05-07 04:31 35.82132 -78.53727 7997 ft 261 kts 306°
2026-05-07 04:31 35.83515 -78.55204 7995 ft 267 kts 322°
2026-05-07 04:31 35.85168 -78.56296 7997 ft 268 kts 324°
2026-05-07 04:31 35.86791 -78.57433 7938 ft 271 kts 323°
2026-05-07 04:32 35.88438 -78.58539 7558 ft 274 kts 329°
2026-05-07 04:32 35.90337 -78.58914 7175 ft 288 kts
2026-05-07 04:32 35.92243 -78.58013 6585 ft 306 kts 32°
2026-05-07 04:32 35.93876 -78.56300 5865 ft 316 kts 43°
2026-05-07 04:33 35.95414 -78.54358 5140 ft 321 kts 44°
2026-05-07 04:33 35.96983 -78.52395 4412 ft 323 kts 42°
2026-05-07 04:33 35.98698 -78.50781 3683 ft 300 kts 29°
2026-05-07 04:33 36.00532 -78.49925 3106 ft 270 kts 359°
2026-05-07 04:34 36.02150 -78.50468 3017 ft 222 kts 321°
2026-05-07 04:34 36.03218 -78.51650 3008 ft 203 kts 306°
2026-05-07 04:34 36.04155 -78.52966 3008 ft 203 kts 305°
2026-05-07 04:34 36.05075 -78.54291 3009 ft 204 kts 304°
2026-05-07 04:35 36.05991 -78.55623 3008 ft 204 kts 303°
2026-05-07 04:35 36.06471 -78.57098 3003 ft 168 kts 262°
2026-05-07 04:35 36.05971 -78.58180 3004 ft 138 kts 219°
2026-05-07 04:35 36.05158 -78.58810 3010 ft 143 kts 217°
2026-05-07 04:36 36.04346 -78.59565 3012 ft 150 kts 222°
2026-05-07 04:36 36.03403 -78.60583 3074 ft 206 kts 224°
2026-05-07 04:36 36.02369 -78.61780 3175 ft 203 kts 225°
2026-05-07 04:36 36.01363 -78.62983 3271 ft 199 kts 226°
2026-05-07 04:37 35.98672 -78.66292 3295 ft 187 kts 226°
2026-05-07 04:37 35.97758 -78.67422 3232 ft 187 kts 226°
2026-05-07 04:38 35.96827 -78.68580 2913 ft 195 kts 226°
2026-05-07 04:38 35.95850 -78.69791 2467 ft 203 kts 226°
2026-05-07 04:38 35.94882 -78.70990 2008 ft 194 kts 225°
2026-05-07 04:38 35.94000 -78.72081 1718 ft 164 kts 225°
2026-05-07 04:39 35.92492 -78.73945 1229 ft 123 kts 226°
2026-05-07 04:39 35.91923 -78.74653 1124 ft 101 kts 227°
2026-05-07 04:39 35.91460 -78.75231 998 ft 99 kts 225°
2026-05-07 04:40 35.90976 -78.75819 905 ft 93 kts 226°
2026-05-07 04:40 35.90520 -78.76378 746 ft 91 kts 225°
2026-05-07 04:40 35.90077 -78.76920 601 ft 89 kts 227°
2026-05-07 04:40 35.89623 -78.77492 492 ft 97 kts 226°
2026-05-07 04:41 35.89171 -78.78055 396 ft 82 kts 226°
2026-05-07 04:41 35.88823 -78.78496 389 ft 60 kts 225°
2026-05-07 04:41 35.88636 -78.78722 392 ft 14 kts 213°
2026-05-07 04:41 35.88575 -78.78728 393 ft 6 kts 133°
2026-05-07 04:42 35.88555 -78.78699 394 ft 3 kts 129°
2026-05-07 04:42 35.88505 -78.78608 398 ft 17 kts 86°
2026-05-07 04:42 35.88541 -78.78522 400 ft 9 kts 129°
2026-05-07 04:42 35.88512 -78.78471 402 ft 6 kts 83°
2026-05-07 04:43 35.88523 -78.78449 402 ft 0 kts 15°
2026-05-07 04:44 35.88524 -78.78449 402 ft 0 kts 15°
2026-05-07 04:45 35.88519 -78.78450 402 ft 2 kts
2026-05-07 04:45 35.88506 -78.78444 403 ft 2 kts 312°
2026-05-07 04:45 35.88502 -78.78427 403 ft 1 kts 262°
2026-05-07 04:46 35.88502 -78.78424 403 ft 0 kts 268°